When you browse on this site, cookies collect data to enhance your experience and personalize the content and advertising you see.
Visit our Privacy Policy to learn more. By continuing to use the site, you agree to this use of cookies and data.
  • Em Portugal
  • Lista de países
  • Para 7 dias
  • Temperatura da água
  • Mapas de satélite
  • Mapa do tempo
  • Widgets de tempo
  • user-avatar
    Iniciar Sessão

    Previsão horária em Kolozab

    Hoje, 20 Julho, Sábado

    Tempo Temperatura Precipitação Vento Pressão Humidade
    00:00 +16°C° 0.2 mm 1 m/s 755 mmHg 91%
    01:00 +16°C° 0 mm 1 m/s 755 mmHg 92%
    02:00 +16°C° 0 mm 1 m/s 755 mmHg 92%
    03:00 +15°C° 0 mm 1 m/s 755 mmHg 92%
    04:00 +15°C° 0 mm 1 m/s 755 mmHg 92%
    05:00 +18°C° 0 mm 1 m/s 755 mmHg 88%
    06:00 +19°C° 0 mm 1 m/s 755 mmHg 84%
    07:00 +19°C° 0 mm 0 m/s 756 mmHg 81%
    08:00 +21°C° 0 mm 0 m/s 756 mmHg 73%
    09:00 +24°C° 0 mm 1 m/s 756 mmHg 66%
    10:00 +26°C° 0 mm 1 m/s 756 mmHg 59%
    11:00 +27°C° 0 mm 1 m/s 756 mmHg 55%
    12:00 +27°C° 0 mm 1 m/s 756 mmHg 52%
    13:00 +28°C° 0 mm 1 m/s 756 mmHg 49%
    14:00 +28°C° 0 mm 1 m/s 756 mmHg 50%
    15:00 +28°C° 0 mm 2 m/s 756 mmHg 52%
    16:00 +28°C° 0 mm 2 m/s 756 mmHg 54%
    17:00 +26°C° 0 mm 2 m/s 756 mmHg 61%
    18:00 +25°C° 0 mm 2 m/s 755 mmHg 68%
    19:00 +23°C° 0 mm 2 m/s 755 mmHg 74%
    20:00 +21°C° 0 mm 2 m/s 755 mmHg 76%
    21:00 +20°C° 0 mm 2 m/s 756 mmHg 78%
    22:00 +19°C° 0 mm 2 m/s 756 mmHg 80%
    23:00 +19°C° 0 mm 2 m/s 756 mmHg 80%

    Amanhã, 21 Julho, Domingo

    Tempo Temperatura Precipitação Vento Pressão Humidade
    00:00 +19°C° 0 mm 2 m/s 756 mmHg 80%
    01:00 +19°C° 0 mm 3 m/s 755 mmHg 80%
    02:00 +18°C° 0 mm 3 m/s 755 mmHg 80%
    03:00 +18°C° 0 mm 3 m/s 755 mmHg 81%
    04:00 +18°C° 0 mm 3 m/s 755 mmHg 81%
    05:00 +19°C° 0 mm 3 m/s 755 mmHg 78%
    06:00 +21°C° 0 mm 4 m/s 755 mmHg 75%
    07:00 +22°C° 0 mm 5 m/s 754 mmHg 71%
    08:00 +23°C° 0 mm 5 m/s 755 mmHg 71%
    09:00 +25°C° 0 mm 5 m/s 755 mmHg 70%
    10:00 +26°C° 0 mm 5 m/s 755 mmHg 69%
    11:00 +26°C° 1.4 mm 5 m/s 755 mmHg 69%
    12:00 +27°C° 1.4 mm 4 m/s 755 mmHg 69%
    13:00 +27°C° 1.4 mm 4 m/s 755 mmHg 68%
    14:00 +27°C° 1 mm 4 m/s 755 mmHg 69%
    15:00 +27°C° 1 mm 4 m/s 755 mmHg 69%
    16:00 +26°C° 1 mm 4 m/s 755 mmHg 70%
    17:00 +25°C° 0.5 mm 4 m/s 755 mmHg 73%
    18:00 +24°C° 0.5 mm 3 m/s 755 mmHg 77%
    19:00 +21°C° 0.5 mm 3 m/s 756 mmHg 81%
    20:00 +20°C° 0 mm 3 m/s 756 mmHg 83%
    21:00 +19°C° 0 mm 2 m/s 757 mmHg 85%
    22:00 +18°C° 0 mm 2 m/s 757 mmHg 87%
    23:00 +17°C° 0 mm 3 m/s 757 mmHg 89%

    Depois de amanhã, 22 Julho, Segunda-feira

    Tempo Temperatura Precipitação Vento Pressão Humidade
    00:00 +17°C° 0 mm 3 m/s 757 mmHg 90%
    01:00 +16°C° 0 mm 3 m/s 757 mmHg 92%
    02:00 +17°C° 0 mm 3 m/s 757 mmHg 91%
    03:00 +17°C° 0 mm 3 m/s 757 mmHg 90%
    04:00 +17°C° 0 mm 3 m/s 758 mmHg 89%
    05:00 +18°C° 0 mm 4 m/s 758 mmHg 86%
    06:00 +19°C° 0 mm 5 m/s 758 mmHg 83%
    07:00 +19°C° 0 mm 6 m/s 758 mmHg 80%
    08:00 +20°C° 0 mm 5 m/s 759 mmHg 74%
    09:00 +21°C° 0 mm 5 m/s 759 mmHg 68%
    10:00 +22°C° 0 mm 5 m/s 759 mmHg 62%
    11:00 +22°C° 0 mm 5 m/s 759 mmHg 59%
    12:00 +23°C° 0 mm 5 m/s 759 mmHg 56%
    13:00 +23°C° 0 mm 6 m/s 759 mmHg 53%
    14:00 +23°C° 0 mm 6 m/s 760 mmHg 54%
    15:00 +23°C° 0 mm 6 m/s 760 mmHg 55%
    16:00 +23°C° 0 mm 5 m/s 760 mmHg 56%
    17:00 +21°C° 0 mm 5 m/s 760 mmHg 62%
    18:00 +20°C° 0 mm 4 m/s 760 mmHg 67%
    19:00 +19°C° 0 mm 3 m/s 759 mmHg 72%
    20:00 +18°C° 0 mm 3 m/s 760 mmHg 74%
    21:00 +17°C° 0 mm 3 m/s 760 mmHg 76%
    22:00 +16°C° 0 mm 2 m/s 760 mmHg 78%
    23:00 +16°C° 0 mm 2 m/s 760 mmHg 81%

    23 Julho, Terça-feira

    Tempo Temperatura Precipitação Vento Pressão Humidade
    00:00 +15°C° 0 mm 2 m/s 760 mmHg 84%
    01:00 +15°C° 0 mm 2 m/s 760 mmHg 87%
    02:00 +15°C° 0 mm 2 m/s 760 mmHg 85%
    03:00 +16°C° 0 mm 2 m/s 760 mmHg 83%
    04:00 +16°C° 0 mm 2 m/s 759 mmHg 82%
    05:00 +17°C° 0 mm 2 m/s 759 mmHg 81%
    06:00 +18°C° 0 mm 2 m/s 759 mmHg 81%
    07:00 +18°C° 0 mm 3 m/s 759 mmHg 81%
    08:00 +18°C° 0 mm 3 m/s 759 mmHg 81%
    09:00 +19°C° 0 mm 3 m/s 759 mmHg 82%
    10:00 +19°C° 0 mm 3 m/s 760 mmHg 82%
    11:00 +20°C° 0 mm 3 m/s 759 mmHg 80%
    12:00 +21°C° 0 mm 3 m/s 759 mmHg 78%
    13:00 +22°C° 0 mm 3 m/s 759 mmHg 76%
    14:00 +22°C° 0 mm 3 m/s 759 mmHg 76%
    15:00 +23°C° 0 mm 2 m/s 759 mmHg 77%
    16:00 +23°C° 0 mm 1 m/s 759 mmHg 77%
    17:00 +23°C° 0 mm 1 m/s 759 mmHg 79%
    18:00 +23°C° 0 mm 1 m/s 758 mmHg 81%
    19:00 +22°C° 0 mm 1 m/s 758 mmHg 84%
    20:00 +21°C° 0 mm 1 m/s 758 mmHg 87%
    21:00 +20°C° 0 mm 1 m/s 759 mmHg 90%
    22:00 +18°C° 0 mm 1 m/s 759 mmHg 94%
    23:00 +18°C° 0 mm 1 m/s 759 mmHg 94%

    24 Julho, Quarta-feira

    Tempo Temperatura Precipitação Vento Pressão Humidade
    00:00 +18°C° 0 mm 1 m/s 759 mmHg 94%
    01:00 +18°C° 0 mm 1 m/s 759 mmHg 95%
    02:00 +17°C° 0 mm 2 m/s 758 mmHg 95%
    03:00 +17°C° 0 mm 2 m/s 758 mmHg 95%
    04:00 +17°C° 0 mm 2 m/s 758 mmHg 95%
    05:00 +18°C° 0 mm 2 m/s 758 mmHg 91%
    06:00 +20°C° 0 mm 2 m/s 759 mmHg 87%
    07:00 +23°C° 0 mm 2 m/s 759 mmHg 82%
    08:00 +24°C° 0 mm 2 m/s 759 mmHg 76%
    09:00 +26°C° 0 mm 2 m/s 759 mmHg 70%
    10:00 +27°C° 0 mm 2 m/s 759 mmHg 65%
    11:00 +28°C° 0 mm 2 m/s 759 mmHg 63%
    12:00 +28°C° 0 mm 2 m/s 759 mmHg 61%
    13:00 +29°C° 0 mm 2 m/s 759 mmHg 59%
    14:00 +29°C° 0 mm 2 m/s 759 mmHg 60%
    15:00 +29°C° 0 mm 3 m/s 759 mmHg 62%
    16:00 +28°C° 0 mm 3 m/s 759 mmHg 63%
    17:00 +27°C° 0 mm 3 m/s 759 mmHg 70%
    18:00 +25°C° 0 mm 3 m/s 759 mmHg 76%
    19:00 +22°C° 0 mm 3 m/s 758 mmHg 83%
    20:00 +21°C° 0 mm 2 m/s 759 mmHg 84%
    21:00 +20°C° 0 mm 1 m/s 759 mmHg 86%
    22:00 +19°C° 0 mm 1 m/s 759 mmHg 88%
    23:00 +18°C° 0 mm 1 m/s 759 mmHg 88%

    25 Julho, Quinta-feira

    Tempo Temperatura Precipitação Vento Pressão Humidade
    00:00 +16°C° 0 mm 0 m/s 759 mmHg 88%
    01:00 +15°C° 0 mm 0 m/s 760 mmHg 88%
    02:00 +15°C° 0 mm 0 m/s 760 mmHg 88%
    03:00 +15°C° 0 mm 0 m/s 760 mmHg 88%
    04:00 +15°C° 0 mm 0 m/s 759 mmHg 89%
    05:00 +17°C° 0 mm 0 m/s 760 mmHg 83%
    06:00 +18°C° 0 mm 0 m/s 760 mmHg 77%
    07:00 +20°C° 0 mm 0 m/s 760 mmHg 71%
    08:00 +22°C° 0 mm 0 m/s 760 mmHg 65%
    09:00 +26°C° 0 mm 1 m/s 760 mmHg 60%
    10:00 +27°C° 0 mm 1 m/s 760 mmHg 54%
    11:00 +28°C° 0 mm 2 m/s 760 mmHg 52%
    12:00 +29°C° 0 mm 2 m/s 760 mmHg 51%
    13:00 +30°C° 0 mm 3 m/s 760 mmHg 49%
    14:00 +29°C° 0 mm 3 m/s 760 mmHg 51%
    15:00 +29°C° 0 mm 3 m/s 760 mmHg 53%
    16:00 +29°C° 0 mm 3 m/s 759 mmHg 54%
    17:00 +27°C° 0 mm 3 m/s 759 mmHg 62%
    18:00 +25°C° 0 mm 3 m/s 759 mmHg 71%
    19:00 +22°C° 0 mm 3 m/s 759 mmHg 79%
    20:00 +21°C° 0 mm 2 m/s 759 mmHg 84%
    21:00 +20°C° 0 mm 2 m/s 760 mmHg 88%
    22:00 +18°C° 0 mm 2 m/s 760 mmHg 93%
    23:00 +18°C° 0 mm 2 m/s 760 mmHg 94%
    Mostrar mais